User: anonymous   Login
Location: Milton Keynes
(52.0316°N, 0.7531°W)
Time: 20:34:56
(UTC+00:00)
Language:

GENESIS II - Orbit

View from above orbital plane
View from above orbital plane
View from above satellite
View from above satellite

Ground track
Ground track

The orbit data is extracted from the following two-line orbital elements,

1 31789U 07028A   19325.47804971  .00000380  00000-0  29036-4 0  9990
2 31789  64.5024 306.1526 0053400 269.1466  90.3538 15.17068036683462
Epoch (UTC): 21 November 2019 11:28:23
Eccentricity: 0.0053400
inclination: 64.5024°
perigee height: 478 km
apogee height: 551 km
right ascension of ascending node: 306.1526°
argument of perigee: 269.1466°
revolutions per day: 15.17068036
mean anomaly at epoch: 90.3538°
orbit number at epoch: 68346

The dashed part of the orbit path shows where the satellite is in the earth's shadow,  

DLR